LiveATC.Net - Listen to live air traffic control over the Internet!


ICAO: CYQT  IATA: YQT   Airport: Thunder Bay Airport
City: Thunder Bay   State/Province: Ontario
Country: Canada   Continent: North America
CYQT METAR Weather: CYQT 051900Z 11007KT 15SM SCT065 BKN088 24/13 A2996 RMK SC4AC2 SLP150 DENSITY ALT 1800FT
CYQT Flight Activity (FlightAware)
CYQT Webcam:  (Airport Webcams) 

CYQT Ground/Tower
Feed Status: DOWN
Last heard on: 2020-06-30 19:07:21 (36 days 0 hours 37 minutes ago)
Archive Access: CYQT Ground/Tower
FacilityFrequency
Thunder Bay Ground121.900
Thunder Bay Tower118.100

NOTICE

Unauthorized use prohibited. See LiveATC.net Terms of Service


Airport/ARTCC Code
Frequency Search
(e.g., 124.400, 128.75)
Site-wide search
 


Browse Feeds
Top 50 Feeds
Coverage Map
Bad Weather Areas

LiveATC FAQ
Offer LiveATC feed
Contact LiveATC.net
Press Inquiries

LiveATC on iPhone
LiveATC on Android

Windows Phone
Windows 8/10

LiveATC Mobile
(Mobile browser)

ATC Audio Archives
Interesting Recordings

LiveATC Forums


Home Page
About LiveATC.net
Make a Donation
Terms of Use
Privacy Policy

Canadian Air Freqs

AIRMETs/SIGMETs

FAA Airport Status
Nat'l Airspace Status
Arrival Demand Charts


Server Software By:
Icecast.org
Liquidsoap